"datetime","temp","dp","rain_mm","uv","mb"
"2020-08-11 00:00:00",18.7,16.3,0.0,0.0,1012.8
"2020-08-11 00:01:00",18.7,16.3,0.0,0.0,1012.8
"2020-08-11 00:02:00",18.6,16.4,0.0,0.0,1012.8
"2020-08-11 00:03:00",18.6,16.2,0.0,0.0,1012.8
"2020-08-11 00:04:00",18.6,16.2,0.0,0.0,1012.8
"2020-08-11 00:05:00",18.6,16.2,0.0,0.0,1012.8
"2020-08-11 00:06:00",18.5,16.1,0.0,0.0,1012.8
"2020-08-11 00:07:00",18.5,16.3,0.0,0.0,1012.8
"2020-08-11 00:08:00",18.5,16.3,0.0,0.0,1012.8
"2020-08-11 00:09:00",18.5,16.3,0.0,0.0,1012.8
"2020-08-11 00:10:00",18.4,16.2,0.0,0.0,1012.8
"2020-08-11 00:11:00",18.4,16.2,0.0,0.0,1012.8
"2020-08-11 00:12:00",18.5,16.3,0.0,0.0,1012.8
"2020-08-11 00:13:00",18.4,16.2,0.0,0.0,1012.8
"2020-08-11 00:14:00",18.4,16.2,0.0,0.0,1012.8
"2020-08-11 00:15:00",18.4,16.2,0.0,0.0,1012.8
"2020-08-11 00:16:00",18.4,16.2,0.0,0.0,1012.8
"2020-08-11 00:17:00",18.4,16.2,0.0,0.0,1012.9
"2020-08-11 00:18:00",18.4,16.2,0.0,0.0,1012.8
"2020-08-11 00:19:00",18.3,16.1,0.0,0.0,1012.8
"2020-08-11 00:20:00",18.3,16.3,0.0,0.0,1012.8
"2020-08-11 00:21:00",18.3,16.3,0.0,0.0,1012.8
"2020-08-11 00:22:00",18.3,16.3,0.0,0.0,1012.9
"2020-08-11 00:23:00",18.3,16.3,0.0,0.0,1012.9
"2020-08-11 00:24:00",18.3,16.1,0.0,0.0,1012.9
"2020-08-11 00:25:00",18.3,16.3,0.0,0.0,1012.9
"2020-08-11 00:26:00",18.3,16.3,0.0,0.0,1012.9
"2020-08-11 00:27:00",18.3,16.3,0.0,0.0,1012.9
"2020-08-11 00:28:00",18.3,16.3,0.0,0.0,1012.9
"2020-08-11 00:29:00",18.3,16.3,0.0,0.0,1012.9
"2020-08-11 00:30:00",18.2,16.2,0.0,0.0,1012.9
"2020-08-11 00:31:00",18.2,16.2,0.0,0.0,1012.9
"2020-08-11 00:32:00",18.2,16.2,0.0,0.0,1012.9
"2020-08-11 00:33:00",18.2,16.2,0.0,0.0,1012.9
"2020-08-11 00:34:00",18.2,16.2,0.0,0.0,1012.9
"2020-08-11 00:35:00",18.2,16.2,0.0,0.0,1012.9
"2020-08-11 00:36:00",18.1,16.1,0.0,0.0,1012.9
"2020-08-11 00:37:00",18.2,16.2,0.0,0.0,1012.9
"2020-08-11 00:38:00",18.2,16.2,0.0,0.0,1012.9
"2020-08-11 00:39:00",18.2,16.2,0.0,0.0,1012.9
"2020-08-11 00:40:00",18.1,16.1,0.0,0.0,1012.8
"2020-08-11 00:41:00",18.2,16.2,0.0,0.0,1012.9
"2020-08-11 00:42:00",18.1,16.1,0.0,0.0,1012.9
"2020-08-11 00:43:00",18.1,16.1,0.0,0.0,1012.8
"2020-08-11 00:44:00",18.1,16.1,0.0,0.0,1012.9
"2020-08-11 00:45:00",18.0,16.0,0.0,0.0,1012.9
"2020-08-11 00:46:00",18.0,16.0,0.0,0.0,1012.9
"2020-08-11 00:47:00",18.0,16.0,0.0,0.0,1012.9
"2020-08-11 00:48:00",18.0,16.2,0.0,0.0,1012.9
"2020-08-11 00:49:00",18.1,16.3,0.0,0.0,1012.9
"2020-08-11 00:50:00",18.1,16.3,0.0,0.0,1012.9
"2020-08-11 00:51:00",18.1,16.3,0.0,0.0,1012.9
"2020-08-11 00:52:00",18.1,16.3,0.0,0.0,1012.9
"2020-08-11 00:53:00",18.1,16.3,0.0,0.0,1012.9
"2020-08-11 00:54:00",18.0,16.2,0.0,0.0,1012.9
"2020-08-11 00:55:00",18.0,16.2,0.0,0.0,1012.9
"2020-08-11 00:56:00",18.0,16.0,0.0,0.0,1012.9
"2020-08-11 00:57:00",18.0,16.0,0.0,0.0,1012.9
"2020-08-11 00:58:00",18.0,16.0,0.0,0.0,1012.9
"2020-08-11 00:59:00",17.9,16.1,0.0,0.0,1012.9
"2020-08-11 01:00:00",17.9,16.1,0.0,0.0,1012.9
"2020-08-11 01:01:00",17.9,16.1,0.0,0.0,1012.9
"2020-08-11 01:02:00",17.9,16.1,0.0,0.0,1012.9
"2020-08-11 01:03:00",18.0,16.2,0.0,0.0,1012.9
"2020-08-11 01:04:00",17.9,16.1,0.0,0.0,1012.9
"2020-08-11 01:05:00",17.9,16.1,0.0,0.0,1012.9
"2020-08-11 01:06:00",17.9,16.1,0.0,0.0,1012.9
"2020-08-11 01:07:00",17.9,16.1,0.0,0.0,1012.9
"2020-08-11 01:08:00",17.9,16.1,0.0,0.0,1012.9
"2020-08-11 01:09:00",18.0,16.2,0.0,0.0,1012.9
"2020-08-11 01:10:00",17.9,16.1,0.0,0.0,1012.9
"2020-08-11 01:11:00",17.9,16.1,0.0,0.0,1012.9
"2020-08-11 01:12:00",17.9,16.1,0.0,0.0,1012.9
"2020-08-11 01:13:00",17.9,16.1,0.0,0.0,1012.9
"2020-08-11 01:14:00",17.9,16.1,0.0,0.0,1012.9
"2020-08-11 01:15:00",17.9,16.1,0.0,0.0,1012.9
"2020-08-11 01:16:00",17.9,16.1,0.0,0.0,1012.9
"2020-08-11 01:17:00",17.9,16.1,0.0,0.0,1012.9
"2020-08-11 01:18:00",17.9,16.1,0.0,0.0,1012.9
"2020-08-11 01:19:00",17.9,16.1,0.0,0.0,1012.9
"2020-08-11 01:20:00",17.9,16.1,0.0,0.0,1012.9
"2020-08-11 01:21:00",17.9,16.1,0.0,0.0,1013.0
"2020-08-11 01:22:00",17.8,16.0,0.0,0.0,1012.9
"2020-08-11 01:23:00",17.9,16.1,0.0,0.0,1012.9
"2020-08-11 01:24:00",17.8,16.0,0.0,0.0,1012.9
"2020-08-11 01:25:00",17.9,16.1,0.0,0.0,1012.9
"2020-08-11 01:26:00",17.8,16.0,0.0,0.0,1012.9
"2020-08-11 01:27:00",17.8,16.0,0.0,0.0,1012.9
"2020-08-11 01:28:00",17.8,16.0,0.0,0.0,1012.9
"2020-08-11 01:29:00",17.8,16.0,0.0,0.0,1012.9
"2020-08-11 01:30:00",17.8,16.0,0.0,0.0,1013.0
"2020-08-11 01:31:00",17.8,16.1,0.0,0.0,1013.0
"2020-08-11 01:32:00",17.8,16.1,0.0,0.0,1012.9
"2020-08-11 01:33:00",17.8,16.1,0.0,0.0,1012.9
"2020-08-11 01:34:00",17.8,16.1,0.0,0.0,1012.9
"2020-08-11 01:35:00",17.8,16.1,0.0,0.0,1012.9
"2020-08-11 01:36:00",17.8,16.1,0.0,0.0,1012.9
"2020-08-11 01:37:00",17.8,16.1,0.0,0.0,1012.9
"2020-08-11 01:38:00",17.7,15.9,0.0,0.0,1012.9
"2020-08-11 01:39:00",17.7,15.9,0.0,0.0,1012.9
"2020-08-11 01:40:00",17.7,16.0,0.0,0.0,1012.9
"2020-08-11 01:41:00",17.7,16.0,0.0,0.0,1012.9
"2020-08-11 01:42:00",17.7,16.0,0.0,0.0,1012.9
"2020-08-11 01:43:00",17.7,16.0,0.0,0.0,1012.9
"2020-08-11 01:44:00",17.7,16.0,0.0,0.0,1012.9
"2020-08-11 01:45:00",17.7,16.0,0.0,0.0,1012.9
"2020-08-11 01:46:00",17.7,16.0,0.0,0.0,1012.9
"2020-08-11 01:47:00",17.8,16.1,0.0,0.0,1012.8
"2020-08-11 01:48:00",17.8,16.1,0.0,0.0,1012.9
"2020-08-11 01:49:00",17.8,16.1,0.0,0.0,1012.8
"2020-08-11 01:50:00",17.8,16.1,0.0,0.0,1012.8
"2020-08-11 01:51:00",17.8,16.1,0.0,0.0,1012.8
"2020-08-11 01:52:00",17.7,16.0,0.0,0.0,1012.8
"2020-08-11 01:53:00",17.7,16.0,0.0,0.0,1012.9
"2020-08-11 01:54:00",17.7,16.0,0.0,0.0,1012.8
"2020-08-11 01:55:00",17.7,16.0,0.0,0.0,1012.8
"2020-08-11 01:56:00",17.7,16.0,0.0,0.0,1012.8
"2020-08-11 01:57:00",17.7,16.0,0.0,0.0,1012.8
"2020-08-11 01:58:00",17.8,16.1,0.0,0.0,1012.8
"2020-08-11 01:59:00",17.8,16.1,0.0,0.0,1012.8
"2020-08-11 02:00:00",17.8,16.1,0.0,0.0,1012.7
"2020-08-11 02:01:00",17.8,16.1,0.0,0.0,1012.7
"2020-08-11 02:02:00",17.8,16.1,0.0,0.0,1012.7
"2020-08-11 02:03:00",17.8,16.1,0.0,0.0,1012.6
"2020-08-11 02:04:00",17.8,16.1,0.0,0.0,1012.6
"2020-08-11 02:05:00",17.8,16.1,0.0,0.0,1012.6
"2020-08-11 02:06:00",17.8,16.1,0.0,0.0,1012.6
"2020-08-11 02:07:00",17.8,16.1,0.0,0.0,1012.6
"2020-08-11 02:08:00",17.8,16.1,0.0,0.0,1012.6
"2020-08-11 02:09:00",17.8,16.1,0.0,0.0,1012.6
"2020-08-11 02:10:00",17.8,16.1,0.0,0.0,1012.6
"2020-08-11 02:11:00",17.8,16.1,0.0,0.0,1012.6
"2020-08-11 02:12:00",17.8,16.1,0.0,0.0,1012.6
"2020-08-11 02:13:00",17.8,16.1,0.0,0.0,1012.6
"2020-08-11 02:14:00",17.8,16.1,0.0,0.0,1012.6
"2020-08-11 02:15:00",17.8,16.1,0.0,0.0,1012.6
"2020-08-11 02:16:00",17.7,16.0,0.0,0.0,1012.6
"2020-08-11 02:17:00",17.7,16.0,0.0,0.0,1012.6
"2020-08-11 02:18:00",17.7,16.0,0.0,0.0,1012.5
"2020-08-11 02:19:00",17.7,16.0,0.0,0.0,1012.6
"2020-08-11 02:20:00",17.7,16.0,0.0,0.0,1012.6
"2020-08-11 02:21:00",17.7,16.0,0.0,0.0,1012.5
"2020-08-11 02:22:00",17.7,16.0,0.0,0.0,1012.5
"2020-08-11 02:23:00",17.7,16.0,0.0,0.0,1012.5
"2020-08-11 02:24:00",17.7,16.0,0.0,0.0,1012.5
"2020-08-11 02:25:00",17.7,16.0,0.0,0.0,1012.5
"2020-08-11 02:26:00",17.7,16.0,0.0,0.0,1012.5
"2020-08-11 02:27:00",17.7,16.0,0.0,0.0,1012.6
"2020-08-11 02:28:00",17.7,16.0,0.0,0.0,1012.5
"2020-08-11 02:29:00",17.7,16.0,0.0,0.0,1012.6
"2020-08-11 02:30:00",17.7,16.0,0.0,0.0,1012.6
"2020-08-11 02:31:00",17.7,16.0,0.0,0.0,1012.6
"2020-08-11 02:32:00",17.6,15.9,0.0,0.0,1012.7
"2020-08-11 02:33:00",17.6,16.1,0.0,0.0,1012.7
"2020-08-11 02:34:00",17.7,16.2,0.0,0.0,1012.6
"2020-08-11 02:35:00",17.7,16.2,0.0,0.0,1012.6
"2020-08-11 02:36:00",17.7,16.2,0.0,0.0,1012.6
"2020-08-11 02:37:00",17.7,16.2,0.0,0.0,1012.7
"2020-08-11 02:38:00",17.7,16.2,0.0,0.0,1012.6
"2020-08-11 02:39:00",17.7,16.0,0.0,0.0,1012.6
"2020-08-11 02:40:00",17.6,15.9,0.0,0.0,1012.6
"2020-08-11 02:41:00",17.6,15.9,0.0,0.0,1012.6
"2020-08-11 02:42:00",17.6,16.1,0.0,0.0,1012.7
"2020-08-11 02:43:00",17.6,16.1,0.0,0.0,1012.6
"2020-08-11 02:44:00",17.6,16.1,0.0,0.0,1012.6
"2020-08-11 02:45:00",17.6,16.1,0.0,0.0,1012.6
"2020-08-11 02:46:00",17.6,16.1,0.0,0.0,1012.6
"2020-08-11 02:47:00",17.6,16.1,0.0,0.0,1012.6
"2020-08-11 02:48:00",17.6,16.1,0.0,0.0,1012.6
"2020-08-11 02:49:00",17.6,16.1,0.0,0.0,1012.6
"2020-08-11 02:50:00",17.6,16.1,0.0,0.0,1012.6
"2020-08-11 02:51:00",17.6,16.1,0.0,0.0,1012.6
"2020-08-11 02:52:00",17.6,16.1,0.0,0.0,1012.6
"2020-08-11 02:53:00",17.6,16.1,0.0,0.0,1012.6
"2020-08-11 02:54:00",17.6,16.1,0.0,0.0,1012.6
"2020-08-11 02:55:00",17.6,16.1,0.0,0.0,1012.6
"2020-08-11 02:56:00",17.6,16.1,0.0,0.0,1012.6
"2020-08-11 02:57:00",17.5,16.0,0.0,0.0,1012.6
"2020-08-11 02:58:00",17.4,15.9,0.0,0.0,1012.6
"2020-08-11 02:59:00",17.5,16.0,0.0,0.0,1012.6
"2020-08-11 03:00:00",17.5,16.0,0.0,0.0,1012.6
"2020-08-11 03:01:00",17.5,16.0,0.0,0.0,1012.6
"2020-08-11 03:02:00",17.5,16.0,0.0,0.0,1012.6
"2020-08-11 03:03:00",17.5,16.0,0.0,0.0,1012.6
"2020-08-11 03:04:00",17.5,16.0,0.0,0.0,1012.5
"2020-08-11 03:05:00",17.4,15.9,0.0,0.0,1012.6
"2020-08-11 03:06:00",17.4,15.9,0.0,0.0,1012.6
"2020-08-11 03:07:00",17.4,15.9,0.0,0.0,1012.6
"2020-08-11 03:08:00",17.4,15.9,0.0,0.0,1012.6
"2020-08-11 03:09:00",17.3,15.8,0.0,0.0,1012.5
"2020-08-11 03:10:00",17.3,15.8,0.0,0.0,1012.5
"2020-08-11 03:11:00",17.4,15.9,0.0,0.0,1012.5
"2020-08-11 03:12:00",17.3,15.8,0.0,0.0,1012.5
"2020-08-11 03:13:00",17.3,15.8,0.0,0.0,1012.5
"2020-08-11 03:14:00",17.3,15.8,0.0,0.0,1012.5
"2020-08-11 03:15:00",17.3,15.8,0.0,0.0,1012.5
"2020-08-11 03:16:00",17.3,15.8,0.0,0.0,1012.5
"2020-08-11 03:17:00",17.2,15.7,0.0,0.0,1012.5
"2020-08-11 03:18:00",17.3,16.0,0.0,0.0,1012.5
"2020-08-11 03:19:00",17.3,16.0,0.0,0.0,1012.5
"2020-08-11 03:20:00",17.3,16.0,0.0,0.0,1012.5
"2020-08-11 03:21:00",17.3,16.0,0.0,0.0,1012.5
"2020-08-11 03:22:00",17.2,15.9,0.0,0.0,1012.5
"2020-08-11 03:23:00",17.2,15.9,0.0,0.0,1012.5
"2020-08-11 03:24:00",17.2,15.9,0.0,0.0,1012.5
"2020-08-11 03:25:00",17.2,15.9,0.0,0.0,1012.5
"2020-08-11 03:26:00",17.2,15.9,0.0,0.0,1012.5
"2020-08-11 03:27:00",17.1,15.8,0.0,0.0,1012.5
"2020-08-11 03:28:00",17.2,15.9,0.0,0.0,1012.5
"2020-08-11 03:29:00",17.1,15.8,0.0,0.0,1012.4
"2020-08-11 03:30:00",17.1,15.8,0.0,0.0,1012.4
"2020-08-11 03:31:00",17.1,15.8,0.0,0.0,1012.4
"2020-08-11 03:32:00",17.1,15.8,0.0,0.0,1012.4
"2020-08-11 03:33:00",17.1,15.8,0.0,0.0,1012.4
"2020-08-11 03:34:00",17.1,15.8,0.0,0.0,1012.5
"2020-08-11 03:35:00",17.0,15.7,0.0,0.0,1012.5
"2020-08-11 03:36:00",17.0,15.7,0.0,0.0,1012.4
"2020-08-11 03:37:00",17.0,15.7,0.0,0.0,1012.4
"2020-08-11 03:38:00",17.0,15.7,0.0,0.0,1012.4
"2020-08-11 03:39:00",17.0,15.7,0.0,0.0,1012.5
"2020-08-11 03:40:00",17.0,15.7,0.0,0.0,1012.4
"2020-08-11 03:41:00",17.0,15.7,0.0,0.0,1012.5
"2020-08-11 03:42:00",17.0,15.7,0.0,0.0,1012.4
"2020-08-11 03:43:00",17.0,15.7,0.0,0.0,1012.4
"2020-08-11 03:44:00",17.0,15.7,0.0,0.0,1012.4
"2020-08-11 03:45:00",17.1,15.8,0.0,0.0,1012.4
"2020-08-11 03:46:00",17.1,15.8,0.0,0.0,1012.4
"2020-08-11 03:47:00",17.1,15.8,0.0,0.0,1012.4
"2020-08-11 03:48:00",17.0,15.7,0.0,0.0,1012.4
"2020-08-11 03:49:00",17.0,15.7,0.0,0.0,1012.4
"2020-08-11 03:50:00",17.0,15.9,0.0,0.0,1012.4
"2020-08-11 03:51:00",17.0,15.9,0.0,0.0,1012.4
"2020-08-11 03:52:00",17.0,15.9,0.0,0.0,1012.5
"2020-08-11 03:53:00",17.1,16.0,0.0,0.0,1012.5
"2020-08-11 03:54:00",17.1,16.0,0.0,0.0,1012.5
"2020-08-11 03:55:00",17.1,15.8,0.0,0.0,1012.4
"2020-08-11 03:56:00",17.1,15.8,0.0,0.0,1012.4
"2020-08-11 03:57:00",17.1,15.8,0.0,0.0,1012.4
"2020-08-11 03:58:00",17.1,15.8,0.0,0.0,1012.4
"2020-08-11 03:59:00",17.0,15.7,0.0,0.0,1012.4
"2020-08-11 04:00:00",17.0,15.7,0.0,0.0,1012.4
"2020-08-11 04:01:00",17.0,15.9,0.0,0.0,1012.4
"2020-08-11 04:02:00",17.1,16.0,0.0,0.0,1012.4
"2020-08-11 04:03:00",17.1,16.0,0.0,0.0,1012.4
"2020-08-11 04:04:00",17.1,16.0,0.0,0.0,1012.4
"2020-08-11 04:05:00",17.0,15.9,0.0,0.0,1012.4
"2020-08-11 04:06:00",17.0,15.9,0.0,0.0,1012.4
"2020-08-11 04:07:00",17.0,15.9,0.0,0.0,1012.4
"2020-08-11 04:08:00",17.0,15.9,0.0,0.0,1012.4
"2020-08-11 04:09:00",17.0,15.9,0.0,0.0,1012.5
"2020-08-11 04:10:00",17.0,15.9,0.0,0.0,1012.4
"2020-08-11 04:11:00",17.0,15.9,0.0,0.0,1012.4
"2020-08-11 04:12:00",17.0,15.9,0.0,0.0,1012.5
"2020-08-11 04:13:00",17.0,15.9,0.0,0.0,1012.5
"2020-08-11 04:14:00",17.0,15.9,0.0,0.0,1012.4
"2020-08-11 04:15:00",16.9,15.8,0.0,0.0,1012.4
"2020-08-11 04:16:00",16.9,15.8,0.0,0.0,1012.5
"2020-08-11 04:17:00",16.9,15.8,0.0,0.0,1012.5
"2020-08-11 04:18:00",16.8,15.7,0.0,0.0,1012.5
"2020-08-11 04:19:00",16.9,15.8,0.0,0.0,1012.5
"2020-08-11 04:20:00",16.9,15.8,0.0,0.0,1012.4
"2020-08-11 04:21:00",16.9,15.8,0.0,0.0,1012.4
"2020-08-11 04:22:00",16.9,15.8,0.0,0.0,1012.5
"2020-08-11 04:23:00",16.9,15.8,0.0,0.0,1012.5
"2020-08-11 04:24:00",16.8,15.7,0.0,0.0,1012.5
"2020-08-11 04:25:00",16.9,15.8,0.0,0.0,1012.5
"2020-08-11 04:26:00",16.9,15.8,0.0,0.0,1012.5
"2020-08-11 04:27:00",16.8,15.7,0.0,0.0,1012.5
"2020-08-11 04:28:00",16.9,15.8,0.0,0.0,1012.6
"2020-08-11 04:29:00",16.9,15.8,0.0,0.0,1012.5
"2020-08-11 04:30:00",16.9,15.8,0.0,0.0,1012.5
"2020-08-11 04:31:00",16.8,15.7,0.0,0.0,1012.5
"2020-08-11 04:32:00",16.8,15.7,0.0,0.0,1012.5
"2020-08-11 04:33:00",16.8,15.7,0.0,0.0,1012.5
"2020-08-11 04:34:00",16.8,15.7,0.0,0.0,1012.5
"2020-08-11 04:35:00",16.8,15.7,0.0,0.0,1012.6
"2020-08-11 04:36:00",16.8,15.7,0.0,0.0,1012.6
"2020-08-11 04:37:00",16.8,15.7,0.0,0.0,1012.5
"2020-08-11 04:38:00",16.8,15.7,0.0,0.0,1012.6
"2020-08-11 04:39:00",16.8,15.7,0.0,0.0,1012.6
"2020-08-11 04:40:00",16.8,15.7,0.0,0.0,1012.6
"2020-08-11 04:41:00",16.9,15.8,0.0,0.0,1012.6
"2020-08-11 04:42:00",16.8,15.7,0.0,0.0,1012.6
"2020-08-11 04:43:00",16.8,15.7,0.0,0.0,1012.6
"2020-08-11 04:44:00",16.8,15.7,0.0,0.0,1012.6
"2020-08-11 04:45:00",16.8,15.7,0.0,0.0,1012.6
"2020-08-11 04:46:00",16.8,15.7,0.0,0.0,1012.6
"2020-08-11 04:47:00",16.8,15.7,0.0,0.0,1012.6
"2020-08-11 04:48:00",16.8,15.7,0.0,0.0,1012.6
"2020-08-11 04:49:00",16.8,15.7,0.0,0.0,1012.7
"2020-08-11 04:50:00",16.8,15.7,0.0,0.0,1012.6
"2020-08-11 04:51:00",16.8,15.7,0.0,0.0,1012.6
"2020-08-11 04:52:00",16.8,15.7,0.0,0.0,1012.7
"2020-08-11 04:53:00",16.8,15.7,0.0,0.0,1012.7
"2020-08-11 04:54:00",16.8,15.7,0.0,0.0,1012.7
"2020-08-11 04:55:00",16.8,15.7,0.0,0.0,1012.6
"2020-08-11 04:56:00",16.8,15.7,0.0,0.0,1012.6
"2020-08-11 04:57:00",16.8,15.7,0.0,0.0,1012.7
"2020-08-11 04:58:00",16.7,15.6,0.0,0.0,1012.7
"2020-08-11 04:59:00",16.8,15.7,0.0,0.0,1012.7
"2020-08-11 05:00:00",16.8,15.7,0.0,0.0,1012.7
"2020-08-11 05:01:00",16.8,15.7,0.0,0.0,1012.7
"2020-08-11 05:02:00",16.8,15.7,0.0,0.0,1012.7
"2020-08-11 05:03:00",16.7,15.6,0.0,0.0,1012.7
"2020-08-11 05:04:00",16.7,15.6,0.0,0.0,1012.7
"2020-08-11 05:05:00",16.8,15.7,0.0,0.0,1012.7
"2020-08-11 05:06:00",16.8,15.7,0.0,0.0,1012.7
"2020-08-11 05:07:00",16.8,15.7,0.0,0.0,1012.8
"2020-08-11 05:08:00",16.8,15.7,0.0,0.0,1012.8
"2020-08-11 05:09:00",16.9,15.8,0.0,0.0,1012.8
"2020-08-11 05:10:00",16.9,15.8,0.0,0.0,1012.8
"2020-08-11 05:11:00",16.9,15.8,0.0,0.0,1012.8
"2020-08-11 05:12:00",17.0,15.9,0.0,0.0,1012.8
"2020-08-11 05:13:00",16.9,15.8,0.0,0.0,1012.8
"2020-08-11 05:14:00",16.9,15.8,0.0,0.0,1012.8
"2020-08-11 05:15:00",16.9,15.8,0.0,0.0,1012.8
"2020-08-11 05:16:00",16.9,15.8,0.0,0.0,1012.8
"2020-08-11 05:17:00",16.9,15.8,0.0,0.0,1012.8
"2020-08-11 05:18:00",16.9,15.8,0.0,0.0,1012.8
"2020-08-11 05:19:00",16.9,15.8,0.0,0.0,1012.7
"2020-08-11 05:20:00",16.8,15.7,0.0,0.0,1012.7
"2020-08-11 05:21:00",16.9,15.8,0.0,0.0,1012.7
"2020-08-11 05:22:00",16.8,15.7,0.0,0.0,1012.7
"2020-08-11 05:23:00",16.8,15.7,0.0,0.0,1012.7
"2020-08-11 05:24:00",16.9,15.8,0.0,0.0,1012.7
"2020-08-11 05:25:00",16.8,15.7,0.0,0.0,1012.7
"2020-08-11 05:26:00",16.8,15.7,0.0,0.0,1012.7
"2020-08-11 05:27:00",16.8,15.7,0.0,0.0,1012.7
"2020-08-11 05:28:00",16.8,15.7,0.0,0.0,1012.7
"2020-08-11 05:29:00",16.7,15.6,0.0,0.0,1012.7
"2020-08-11 05:30:00",16.7,15.6,0.0,0.0,1012.7
"2020-08-11 05:31:00",16.7,15.6,0.0,0.0,1012.7
"2020-08-11 05:32:00",16.7,15.6,0.0,0.0,1012.7
"2020-08-11 05:33:00",16.7,15.6,0.0,0.0,1012.7
"2020-08-11 05:34:00",16.7,15.6,0.0,0.0,1012.7
"2020-08-11 05:35:00",16.7,15.6,0.0,0.0,1012.7
"2020-08-11 05:36:00",16.7,15.6,0.0,0.0,1012.7
"2020-08-11 05:37:00",16.7,15.6,0.0,0.0,1012.7
"2020-08-11 05:38:00",16.7,15.6,0.0,0.0,1012.7
"2020-08-11 05:39:00",16.7,15.6,0.0,0.0,1012.6
"2020-08-11 05:40:00",16.7,15.6,0.0,0.0,1012.6
"2020-08-11 05:41:00",16.7,15.6,0.0,0.0,1012.7
"2020-08-11 05:42:00",16.7,15.6,0.0,0.0,1012.6
"2020-08-11 05:43:00",16.7,15.6,0.0,0.0,1012.6
"2020-08-11 05:44:00",16.7,15.6,0.0,0.0,1012.6
"2020-08-11 05:45:00",16.7,15.6,0.0,0.0,1012.6
"2020-08-11 05:46:00",16.6,15.5,0.0,0.0,1012.6
"2020-08-11 05:47:00",16.6,15.5,0.0,0.0,1012.6
"2020-08-11 05:48:00",16.6,15.5,0.0,0.0,1012.6
"2020-08-11 05:49:00",16.6,15.5,0.0,0.0,1012.6
"2020-08-11 05:50:00",16.6,15.5,0.0,0.0,1012.6
"2020-08-11 05:51:00",16.6,15.5,0.0,0.0,1012.6
"2020-08-11 05:52:00",16.6,15.5,0.0,0.0,1012.6
"2020-08-11 05:53:00",16.5,15.4,0.0,0.0,1012.5
"2020-08-11 05:54:00",16.5,15.4,0.0,0.0,1012.6
"2020-08-11 05:55:00",16.5,15.4,0.0,0.0,1012.6
"2020-08-11 05:56:00",16.6,15.5,0.0,0.0,1012.6
"2020-08-11 05:57:00",16.6,15.5,0.0,0.0,1012.6
"2020-08-11 05:58:00",16.6,15.5,0.0,0.0,1012.6
"2020-08-11 05:59:00",16.6,15.6,0.0,0.0,1012.6
"2020-08-11 06:00:00",16.6,15.6,0.0,0.0,1012.6
"2020-08-11 06:01:00",16.7,15.7,0.0,0.0,1012.6
"2020-08-11 06:02:00",16.7,15.7,0.0,0.0,1012.6
"2020-08-11 06:03:00",16.7,15.7,0.0,0.0,1012.6
"2020-08-11 06:04:00",16.7,15.7,0.0,0.0,1012.6
"2020-08-11 06:05:00",16.7,15.7,0.0,0.0,1012.6
"2020-08-11 06:06:00",16.7,15.7,0.0,0.0,1012.6
"2020-08-11 06:07:00",16.6,15.5,0.0,0.0,1012.6
"2020-08-11 06:08:00",16.6,15.5,0.0,0.0,1012.7
"2020-08-11 06:09:00",16.6,15.6,0.0,0.0,1012.6
"2020-08-11 06:10:00",16.6,15.6,0.0,0.0,1012.7
"2020-08-11 06:11:00",16.6,15.6,0.0,0.0,1012.6
"2020-08-11 06:12:00",16.6,15.6,0.0,0.0,1012.7
"2020-08-11 06:13:00",16.6,15.6,0.0,0.0,1012.7
"2020-08-11 06:14:00",16.6,15.6,0.0,0.0,1012.7
"2020-08-11 06:15:00",16.6,15.6,0.0,0.0,1012.8
"2020-08-11 06:16:00",16.7,15.7,0.0,0.0,1012.8
"2020-08-11 06:17:00",16.7,15.7,0.0,0.0,1012.8
"2020-08-11 06:18:00",16.7,15.7,0.0,0.0,1012.8
"2020-08-11 06:19:00",16.8,15.8,0.0,0.0,1012.8
"2020-08-11 06:20:00",16.8,15.8,0.0,0.0,1012.8
"2020-08-11 06:21:00",16.8,15.8,0.0,0.0,1012.8
"2020-08-11 06:22:00",16.8,15.8,0.0,0.0,1012.8
"2020-08-11 06:23:00",16.8,15.8,0.0,0.0,1012.8
"2020-08-11 06:24:00",16.9,15.9,0.0,0.0,1012.8
"2020-08-11 06:25:00",16.8,15.8,0.0,0.0,1012.8
"2020-08-11 06:26:00",16.8,15.8,0.0,0.0,1012.8
"2020-08-11 06:27:00",16.8,15.7,0.0,0.0,1012.8
"2020-08-11 06:28:00",16.8,15.7,0.0,0.0,1012.8
"2020-08-11 06:29:00",16.8,15.7,0.0,0.0,1012.9
"2020-08-11 06:30:00",16.8,15.7,0.0,0.0,1012.9
"2020-08-11 06:31:00",16.8,15.8,0.0,0.0,1012.9
"2020-08-11 06:32:00",16.8,15.8,0.0,0.0,1012.9
"2020-08-11 06:33:00",16.9,15.9,0.0,0.0,1012.9
"2020-08-11 06:34:00",16.9,15.9,0.0,0.0,1012.9
"2020-08-11 06:35:00",16.9,15.9,0.0,0.0,1013.0
"2020-08-11 06:36:00",16.9,15.9,0.0,0.0,1012.9
"2020-08-11 06:37:00",17.0,16.0,0.0,0.0,1013.0
"2020-08-11 06:38:00",17.0,15.9,0.0,0.0,1012.9
"2020-08-11 06:39:00",16.9,15.9,0.0,0.0,1013.0
"2020-08-11 06:40:00",16.9,15.9,0.0,0.0,1013.0
"2020-08-11 06:41:00",17.0,16.0,0.0,0.0,1013.0
"2020-08-11 06:42:00",17.0,16.0,0.0,0.0,1013.0
"2020-08-11 06:43:00",17.0,16.0,0.0,0.0,1013.0
"2020-08-11 06:44:00",17.1,16.1,0.0,0.0,1013.1
"2020-08-11 06:45:00",17.1,16.1,0.0,0.0,1013.1
"2020-08-11 06:46:00",17.1,16.1,0.0,0.0,1013.1
"2020-08-11 06:47:00",17.1,16.1,0.0,0.0,1013.1
"2020-08-11 06:48:00",17.2,16.2,0.0,0.0,1013.1
"2020-08-11 06:49:00",17.2,16.2,0.0,0.0,1013.1
"2020-08-11 06:50:00",17.2,16.2,0.0,0.0,1013.1
"2020-08-11 06:51:00",17.3,16.3,0.0,0.0,1013.1
"2020-08-11 06:52:00",17.3,16.3,0.0,0.0,1013.1
"2020-08-11 06:53:00",17.3,16.3,0.0,0.0,1013.1
"2020-08-11 06:54:00",17.4,16.4,0.0,0.0,1013.2
"2020-08-11 06:55:00",17.4,16.4,0.0,0.0,1013.2
"2020-08-11 06:56:00",17.4,16.3,0.0,0.0,1013.1
"2020-08-11 06:57:00",17.5,16.5,0.0,0.0,1013.2
"2020-08-11 06:58:00",17.5,16.5,0.0,0.0,1013.2
"2020-08-11 06:59:00",17.5,16.4,0.0,0.0,1013.1
"2020-08-11 07:00:00",17.6,16.5,0.0,0.0,1013.2
"2020-08-11 07:01:00",17.6,16.5,0.0,0.0,1013.2
"2020-08-11 07:02:00",17.6,16.5,0.0,0.0,1013.2
"2020-08-11 07:03:00",17.7,16.6,0.0,0.0,1013.2
"2020-08-11 07:04:00",17.7,16.6,0.0,0.0,1013.2
"2020-08-11 07:05:00",17.7,16.6,0.0,0.0,1013.2
"2020-08-11 07:06:00",17.8,16.7,0.0,0.0,1013.2
"2020-08-11 07:07:00",17.8,16.7,0.0,0.0,1013.2
"2020-08-11 07:08:00",17.9,16.8,0.0,0.0,1013.2
"2020-08-11 07:09:00",17.9,16.8,0.0,0.0,1013.2
"2020-08-11 07:10:00",17.9,16.8,0.0,0.0,1013.2
"2020-08-11 07:11:00",17.9,16.8,0.0,0.0,1013.2
"2020-08-11 07:12:00",17.9,16.8,0.0,0.0,1013.2
"2020-08-11 07:13:00",17.9,16.8,0.0,0.0,1013.3
"2020-08-11 07:14:00",18.0,16.9,0.0,0.0,1013.3
"2020-08-11 07:15:00",18.1,16.9,0.0,0.0,1013.2
"2020-08-11 07:16:00",18.1,16.9,0.0,0.0,1013.3
"2020-08-11 07:17:00",18.1,16.8,0.0,0.0,1013.3
"2020-08-11 07:18:00",18.2,16.9,0.0,0.0,1013.3
"2020-08-11 07:19:00",18.2,16.9,0.0,0.0,1013.3
"2020-08-11 07:20:00",18.2,16.9,0.0,0.0,1013.3
"2020-08-11 07:21:00",18.2,16.9,0.0,0.0,1013.3
"2020-08-11 07:22:00",18.3,17.0,0.0,0.0,1013.3
"2020-08-11 07:23:00",18.3,17.0,0.0,0.0,1013.3
"2020-08-11 07:24:00",18.3,17.0,0.0,0.0,1013.3
"2020-08-11 07:25:00",18.3,17.0,0.0,0.0,1013.3
"2020-08-11 07:26:00",18.4,17.1,0.0,0.0,1013.2
"2020-08-11 07:27:00",18.4,17.1,0.0,0.0,1013.3
"2020-08-11 07:28:00",18.4,17.1,0.0,0.0,1013.2
"2020-08-11 07:29:00",18.4,17.1,0.0,0.0,1013.3
"2020-08-11 07:30:00",18.4,17.1,0.0,0.0,1013.3
"2020-08-11 07:31:00",18.4,17.1,0.0,0.0,1013.3
"2020-08-11 07:32:00",18.4,17.1,0.0,0.0,1013.3
"2020-08-11 07:33:00",18.5,17.2,0.0,0.0,1013.3
"2020-08-11 07:34:00",18.5,17.2,0.0,0.0,1013.3
"2020-08-11 07:35:00",18.6,17.3,0.0,0.0,1013.3
"2020-08-11 07:36:00",18.6,17.3,0.0,0.0,1013.3
"2020-08-11 07:37:00",18.6,17.3,0.0,0.0,1013.3
"2020-08-11 07:38:00",18.7,17.4,0.0,0.0,1013.4
"2020-08-11 07:39:00",18.7,17.4,0.0,0.0,1013.4
"2020-08-11 07:40:00",18.8,17.5,0.0,0.0,1013.3
"2020-08-11 07:41:00",18.7,17.4,0.0,0.5,1013.3
"2020-08-11 07:42:00",18.7,17.4,0.0,0.5,1013.3
"2020-08-11 07:43:00",18.7,17.4,0.0,0.5,1013.4
"2020-08-11 07:44:00",18.8,17.5,0.0,0.5,1013.3
"2020-08-11 07:45:00",18.8,17.5,0.0,0.5,1013.3
"2020-08-11 07:46:00",18.8,17.5,0.0,0.5,1013.3
"2020-08-11 07:47:00",18.9,17.6,0.0,0.5,1013.3
"2020-08-11 07:48:00",18.9,17.6,0.0,0.5,1013.3
"2020-08-11 07:49:00",19.0,17.5,0.0,0.5,1013.3
"2020-08-11 07:50:00",19.0,17.5,0.0,0.5,1013.3
"2020-08-11 07:51:00",19.1,17.6,0.0,0.5,1013.4
"2020-08-11 07:52:00",19.2,17.7,0.0,0.5,1013.3
"2020-08-11 07:53:00",19.3,17.8,0.0,0.5,1013.3
"2020-08-11 07:54:00",19.4,17.7,0.0,0.5,1013.4
"2020-08-11 07:55:00",19.5,17.8,0.0,0.6,1013.4
"2020-08-11 07:56:00",19.6,17.9,0.0,0.6,1013.4
"2020-08-11 07:57:00",19.7,18.0,0.0,0.6,1013.4
"2020-08-11 07:58:00",19.7,17.8,0.0,0.6,1013.4
"2020-08-11 07:59:00",19.8,17.9,0.0,0.6,1013.4
"2020-08-11 08:00:00",19.9,18.0,0.0,0.6,1013.4
"2020-08-11 08:01:00",20.0,18.1,0.0,0.6,1013.4
"2020-08-11 08:02:00",20.2,18.1,0.0,0.6,1013.4
"2020-08-11 08:03:00",20.2,18.1,0.0,0.6,1013.5
"2020-08-11 08:04:00",20.3,18.2,0.0,0.6,1013.5
"2020-08-11 08:05:00",20.4,18.3,0.0,0.6,1013.5
"2020-08-11 08:06:00",20.4,18.3,0.0,0.6,1013.5
"2020-08-11 08:07:00",20.5,18.3,0.0,0.6,1013.5
"2020-08-11 08:08:00",20.6,18.4,0.0,0.6,1013.5
"2020-08-11 08:09:00",20.7,18.3,0.0,0.7,1013.5
"2020-08-11 08:10:00",20.8,18.4,0.0,0.7,1013.5
"2020-08-11 08:11:00",20.9,18.5,0.0,0.7,1013.5
"2020-08-11 08:12:00",21.1,18.5,0.0,0.7,1013.5
"2020-08-11 08:13:00",21.2,18.4,0.0,0.7,1013.6
"2020-08-11 08:14:00",21.3,18.5,0.0,0.7,1013.6
"2020-08-11 08:15:00",21.3,18.3,0.0,0.7,1013.5
"2020-08-11 08:16:00",21.5,18.5,0.0,0.7,1013.5
"2020-08-11 08:17:00",21.6,18.6,0.0,0.8,1013.5
"2020-08-11 08:18:00",21.7,18.5,0.0,0.8,1013.5
"2020-08-11 08:19:00",21.8,18.6,0.0,0.8,1013.5
"2020-08-11 08:20:00",21.9,18.5,0.0,0.8,1013.5
"2020-08-11 08:21:00",22.0,18.6,0.0,0.8,1013.5
"2020-08-11 08:22:00",22.0,18.4,0.0,0.8,1013.5
"2020-08-11 08:23:00",22.1,18.5,0.0,0.8,1013.5
"2020-08-11 08:24:00",22.1,18.5,0.0,0.8,1013.5
"2020-08-11 08:25:00",22.2,18.6,0.0,0.9,1013.5
"2020-08-11 08:26:00",22.2,18.6,0.0,0.9,1013.5
"2020-08-11 08:27:00",22.3,18.5,0.0,0.9,1013.6
"2020-08-11 08:28:00",22.4,18.8,0.0,0.9,1013.6